Regional Weather Roundup
Issued by NWS

Home | Current Version | Previous Version | Graphics & Text | Print | Product List | Glossary On
Versions: 1 2 3 4 5 6 7 8 9 10 11 12 13 14 15 16 17 18 19 20 21 22 23 24 25 26 27 28 29 30 31 32 33 34 35 36 37 38 39 40 41 42 43 44 45 46 47 48 49 50
000
ASUS45 KBOU 020807
RWRCO

WEATHER ROUNDUP FOR COLORADO
NATIONAL WEATHER SERVICE DENVER/BOULDER CO
200 AM MDT WED SEP 02 2015

NOTE: "FAIR" INDICATES FEW OR NO CLOUDS BELOW 12000 FEET WITH NO
SIGNIFICANT WEATHER AND/OR OBSTRUCTIONS TO VISIBILITY.

COZ001>005-013-030-031-020900-
...NORTHWEST COLORADO...

CITY           SKY/WX    TMP DP  RH WIND       PRES   REMARKS
CRAIG          CLEAR     49  43  80 SE3       30.22S
HAYDEN         NOT AVBL
MEEKER         PTCLDY    50  45  83 NE7       30.24S
MOUNT WERNER   NOT AVBL
STEAMBOAT SPGS CLEAR     51  42  72 CALM      30.27S
WALDEN         MOCLDY    46  37  71 S6        30.33S
$$

COZ006>008-011-020900-
...WEST CENTRAL VALLEYS...

CITY           SKY/WX    TMP DP  RH WIND       PRES   REMARKS
GRAND JUNCTION PTCLDY    64  50  60 S6        30.14S
MONTROSE       PTCLDY    62  49  62 S3        30.23F
EAGLE          CLEAR     52  48  87 NE5       30.33S
RIFLE          PTCLDY    55  50  83 CALM      30.23S
DELTA          NOT AVBL
NUCLA          PTCLDY    61  45  55 E8        30.25F
$$

COZ017>023-064>068-020900-
...SOUTHWEST COLORADO...

CITY           SKY/WX    TMP DP  RH WIND       PRES   REMARKS
DURANGO        PTCLDY    58  46  64 N3        30.27R
CORTEZ         CLEAR     56  46  69 NE3       30.21F
PAGOSA SPRINGS CLOUDY    61  46  58 NE6       30.34F
TELLURIDE      PTCLDY    52  47  84 SE6       30.46S
WOLF CREEK PAS NOT AVBL
$$

COZ009-010-012-014-032>034-037-058>063-020900-
...CENTRAL COLORADO...

CITY           SKY/WX    TMP DP  RH WIND       PRES   REMARKS
ASPEN          PTCLDY    51  45  79 S3        30.35F
BUENA VISTA    NOT AVBL
COPPER MTN     MOCLDY    46  32  57 SW13G18   30.61S
BERTHOUD PASS  MOCLDY    37  27  65 W13G18    30.64F
COTTONWOOD PAS MOCLDY    52  41  66 W6        30.49S
GUNNISON       CLEAR     52  46  82 NW6       30.40S
KREMMLING      PTCLDY    50  45  81 E5        30.35S
LEADVILLE      CLOUDY    44  44 100 SE3       30.49F FOG
MONARCH PASS   PTCLDY    43  37  81 W18       30.72F
SALIDA         PTCLDY    60  47  62 NW8       30.43S
SUNLIGHT       CLEAR     48  41  76 CALM      30.55F
WILKERSON PASS LGT RAIN  43  37  81 NW12G22   30.59F
$$

COZ069>075-020900-
...SAN LUIS VALLEY/SANGRE DE CRISTO MOUNTAINS...

CITY           SKY/WX    TMP DP  RH WIND       PRES   REMARKS
ALAMOSA        MOCLDY    49  44  83 SW5       30.33F
LA VETA PASS   PTCLDY    50  39  66 S8G20     30.48F
SAGUACHE       MOCLDY    55  45  67 NW13      30.36F
$$

COZ035-036-038>040-020900-
...NORTHERN COLORADO FRONT RANGE...

CITY           SKY/WX    TMP DP  RH WIND       PRES   REMARKS
DENVER INTL AP MOCLDY    67  46  47 S16       30.09F
DMNS CITY PARK   N/A     68  46  45 SE7       30.08F
AURORA         MOCLDY    67  46  45 S13       30.12F
FRONT RANGE AP NOT AVBL
ERIE MUNI ARPT MOCLDY    67  45  44 SE3       30.07R
BOULDER MUN AP MOCLDY    75  39  27 W13G24    30.05F
CENTENNIAL     MOCLDY    69  45  41 SW17      30.13F
BROOMFIELD     MOCLDY    70  41  35 SE6       30.11R
FORT COLLINS   MOCLDY    66  45  45 NE6       30.06F
LONGMONT       MOCLDY    66  47  50 SE6       30.06F
$$

COZ041-046-047-076>085-087-088-020900-
...PIKES PEAK/PALMER DIVIDE AND SOUTHERN FOOTHILLS...

CITY           SKY/WX    TMP DP  RH WIND       PRES   REMARKS
COLO. SPRINGS  MOCLDY    62  50  64 N9        30.19F
A. F. ACADEMY  CLOUDY    69  42  37 S9        30.21S
ELLICOTT       MOCLDY   N/A N/A N/A CALM      30.17F
FALCON         MOCLDY    60  47  61 MISG      30.25S
FORT CARSON    MOCLDY    61  49  64 N6        30.15F
LIMON          MOCLDY    64  50  60 W8        30.10F
MONUMENT HILL  MOCLDY    61  43  51 SW12      30.24S
TRINIDAD       CLEAR     64  46  52 W12       30.17S
$$

COZ042>045-048>051-090-091-020900-
...NORTHEAST COLORADO...

CITY           SKY/WX    TMP DP  RH WIND       PRES   REMARKS
GREELEY ARPT   PTCLDY    61  46  59 CALM      30.05R
AKRON          PTCLDY    63  49  60 SW9       30.05S
BURLINGTON     MOCLDY    68  55  63 SW7       30.01F
WRAY           CLOUDY    68  58  71 W8        29.98S
STERLING       NOT AVBL
HOLYOKE        CLEAR     64  59  82 W9        29.97S
FORT MORGAN    NOT AVBL
$$

COZ086-089-092>099-020900-
...SOUTHEAST COLORADO...

CITY           SKY/WX    TMP DP  RH WIND       PRES   REMARKS
PUEBLO         PTCLDY    65  52  62 W9        30.08F
LA JUNTA       PTCLDY    70  53  54 SW12      30.03F
LAMAR          PTCLDY    68  55  63 S13       29.96F
SPRINGFIELD      N/A     69  55  60 SW15      30.05F
$$



USA.gov is the U.S. government's official web portal to all federal, state and local government web resources and services.